,,PA_Meas_PMT16A,,PR_Meas_QMR101_102,,RH_Meas_QMH101,,SR_Meas_QMS101,,TA_Meas_QMH101,,GenWind,,GenWind,
time,status,PA,status,PR,status,RH,status,SR,status,TA,status,DirAvg,status,SpdAvg,
2010-10-01, 00:00:04,VALID,915.873,VALID,0,VALID,96.5201,VALID,0,VALID,19.0398,VALID,342,VALID,0.108594,
2010-10-01, 00:01:04,VALID,915.892,VALID,0,VALID,96.4667,VALID,0,VALID,19.0008,VALID,342,VALID,0.138281,
2010-10-01, 00:02:04,VALID,915.868,VALID,0,VALID,96.5277,VALID,0,VALID,18.9994,VALID,342,VALID,0,
2010-10-01, 00:03:04,VALID,915.85,VALID,0,VALID,96.6115,VALID,0,VALID,19.0189,VALID,342,VALID,0,
2010-10-01, 00:04:04,VALID,915.866,VALID,0,VALID,96.6878,VALID,0,VALID,19.0579,VALID,342,VALID,0,
2010-10-01, 00:05:04,VALID,915.829,VALID,0,VALID,96.7564,VALID,0,VALID,19.1373,INVALID,360,VALID,0,
2010-10-01, 00:06:04,VALID,915.848,VALID,0,VALID,96.8021,VALID,0,VALID,19.1554,VALID,342,VALID,0,
2010-10-01, 00:07:04,VALID,915.859,VALID,0,VALID,96.8326,VALID,0,VALID,19.1944,INVALID,360,VALID,0,
2010-10-01, 00:08:04,VALID,915.851,VALID,0,VALID,96.8174,VALID,0,VALID,19.2348,VALID,342,VALID,0,
2010-10-01, 00:09:04,VALID,915.83,VALID,0,VALID,96.825,VALID,0,VALID,19.2139,VALID,342,VALID,0,
2010-10-01, 00:10:04,VALID,915.843,VALID,0,VALID,96.8403,VALID,0,VALID,19.2139,VALID,342,VALID,0,
2010-10-01, 00:11:04,VALID,915.827,VALID,0,VALID,96.8021,VALID,0,VALID,19.2348,VALID,342,VALID,0,
2010-10-01, 00:12:04,VALID,915.826,VALID,0,VALID,96.7945,VALID,0,VALID,19.2334,VALID,342,VALID,0,
2010-10-01, 00:13:04,VALID,915.771,VALID,0,VALID,96.8021,VALID,0,VALID,19.2348,VALID,342,VALID,0,
2010-10-01, 00:14:04,VALID,915.776,VALID,0,VALID,96.8021,VALID,0,VALID,19.2348,VALID,342,VALID,0,
2010-10-01, 00:15:04,VALID,915.755,VALID,0,VALID,96.7869,VALID,0,VALID,19.2139,VALID,342,VALID,0,
2010-10-01, 00:16:04,VALID,915.741,VALID,0,VALID,96.7259,VALID,0,VALID,19.2348,VALID,342,VALID,0,
2010-10-01, 00:17:04,VALID,915.737,VALID,0,VALID,96.7411,VALID,0,VALID,19.1944,VALID,342,VALID,0,
2010-10-01, 00:18:04,VALID,915.754,VALID,0,VALID,96.7945,VALID,0,VALID,19.2543,VALID,342,VALID,0,
2010-10-01, 00:19:04,VALID,915.767,VALID,0,VALID,96.825,VALID,0,VALID,19.2528,VALID,342,VALID,0.319922,
2010-10-01, 00:20:04,VALID,915.736,VALID,0,VALID,96.7869,VALID,0,VALID,19.2723,VALID,342,VALID,0.412891,
2010-10-01, 00:21:04,VALID,915.735,VALID,0,VALID,96.8479,VALID,0.107441,VALID,19.3323,VALID,342,VALID,0.213672,
2010-10-01, 00:22:04,VALID,915.729,VALID,0,VALID,96.8098,VALID,0.107441,VALID,19.3113,VALID,342,VALID,0.189844,
2010-10-01, 00:23:04,VALID,915.695,VALID,0,VALID,96.7716,VALID,0,VALID,19.3113,VALID,342,VALID,0,
2010-10-01, 00:24:04,VALID,915.677,VALID,0,VALID,96.7793,VALID,0,VALID,19.3323,VALID,342,VALID,0,
2010-10-01, 00:25:04,VALID,915.636,VALID,0,VALID,96.7793,VALID,0,VALID,19.3308,VALID,342,VALID,0,
2010-10-01, 00:26:04,VALID,915.624,VALID,0,VALID,96.8479,VALID,0,VALID,19.3503,VALID,342,VALID,0,
2010-10-01, 00:27:04,VALID,915.588,VALID,0,VALID,96.8555,VALID,0,VALID,19.4298,VALID,342,VALID,0,
2010-10-01, 00:28:04,VALID,915.581,VALID,0,VALID,96.8403,VALID,0,VALID,19.4493,VALID,342,VALID,0,
2010-10-01, 00:29:04,VALID,915.565,VALID,0,VALID,96.8631,VALID,0.107441,VALID,19.4868,VALID,342,VALID,0,
2010-10-01, 00:30:04,VALID,915.549,VALID,0,VALID,96.825,VALID,0,VALID,19.5273,VALID,342,VALID,0,
2010-10-01, 00:31:04,VALID,915.553,VALID,0,VALID,96.7869,VALID,0,VALID,19.5258,VALID,342,VALID,0,
2010-10-01, 00:32:04,VALID,915.537,VALID,0,VALID,96.764,VALID,0,VALID,19.5648,VALID,342,VALID,0,
2010-10-01, 00:33:04,VALID,915.555,VALID,0,VALID,96.703,VALID,0,VALID,19.5663,VALID,342,VALID,0.276563,
2010-10-01, 00:34:04,VALID,915.53,VALID,0,VALID,96.6954,VALID,0,VALID,19.5648,VALID,342,VALID,0,
2010-10-01, 00:35:04,VALID,915.496,VALID,0,VALID,96.6344,VALID,0,VALID,19.5843,VALID,342,VALID,0,
2010-10-01, 00:36:04,VALID,915.504,VALID,0,VALID,96.6649,VALID,0,VALID,19.6233,VALID,342,VALID,0.402734,
2010-10-01, 00:37:04,VALID,915.503,VALID,0,VALID,96.5734,VALID,0,VALID,19.6038,VALID,342,VALID,0.169531,
2010-10-01, 00:38:04,VALID,915.515,VALID,0,VALID,96.4972,VALID,0,VALID,19.5648,VALID,342,VALID,0.398047,
2010-10-01, 00:39:04,VALID,915.48,VALID,0,VALID,96.4591,VALID,0,VALID,19.5663,VALID,342,VALID,0.423047,
2010-10-01, 00:40:04,VALID,915.474,VALID,0,VALID,96.4286,VALID,0,VALID,19.5663,VALID,342,VALID,0.484766,
2010-10-01, 00:41:04,VALID,915.49,VALID,0,VALID,96.4896,VALID,0,VALID,19.5453,VALID,342,VALID,0.530078,
2010-10-01, 00:42:04,VALID,915.464,VALID,0,VALID,96.4057,VALID,0,VALID,19.5468,VALID,342,VALID,0.507422,
2010-10-01, 00:43:04,VALID,915.478,VALID,0,VALID,96.4286,VALID,0,VALID,19.5273,VALID,342,VALID,0.522656,
2010-10-01, 00:44:04,VALID,915.442,VALID,0,VALID,96.3524,VALID,0,VALID,19.4868,VALID,342,VALID,0.632031,
2010-10-01, 00:45:04,VALID,915.411,VALID,0,VALID,96.3676,VALID,0,VALID,19.5063,VALID,342,VALID,0.593359,
2010-10-01, 00:46:04,VALID,915.392,VALID,0,VALID,96.3905,VALID,0,VALID,19.5273,VALID,342,VALID,0.525391,
2010-10-01, 00:47:04,VALID,915.393,VALID,0,VALID,96.3295,VALID,0,VALID,19.5078,VALID,342,VALID,0.716016,
2010-10-01, 00:48:04,VALID,915.386,VALID,0,VALID,96.36,VALID,0,VALID,19.5078,VALID,342,VALID,0.841797,
2010-10-01, 00:49:04,VALID,915.408,VALID,0,VALID,96.4591,VALID,0,VALID,19.5063,VALID,342,VALID,0.782422,
2010-10-01, 00:50:04,VALID,915.383,VALID,0,VALID,96.5277,VALID,0,VALID,19.5273,VALID,342,VALID,0.639453,
2010-10-01, 00:51:04,VALID,915.378,VALID,0,VALID,96.4896,VALID,0,VALID,19.5258,VALID,342,VALID,0.601563,
2010-10-01, 00:52:04,VALID,915.353,VALID,0,VALID,96.5124,VALID,0,VALID,19.5468,VALID,342,VALID,0.652344,
2010-10-01, 00:53:04,VALID,915.396,VALID,0,VALID,96.4591,VALID,0,VALID,19.5273,VALID,342,VALID,0.662891,
2010-10-01, 00:54:04,VALID,915.352,VALID,0,VALID,96.5658,VALID,0,VALID,19.5663,VALID,342,VALID,0.447656,
2010-10-01, 00:55:04,VALID,915.344,VALID,0,VALID,96.5429,VALID,0,VALID,19.5663,VALID,342,VALID,0.341406,
2010-10-01, 00:56:04,VALID,915.317,VALID,0,VALID,96.4591,VALID,0,VALID,19.5078,VALID,342,VALID,0.498047,
2010-10-01, 00:57:04,VALID,915.302,VALID,0,VALID,96.4515,VALID,0,VALID,19.4673,VALID,342,VALID,0.462109,
2010-10-01, 00:58:04,VALID,915.297,VALID,0,VALID,96.4667,VALID,0,VALID,19.4283,VALID,342,VALID,0.282422,
2010-10-01, 00:59:04,VALID,915.263,VALID,0,VALID,96.5963,VALID,0,VALID,19.4883,VALID,342,VALID,0.175,
2010-10-01, 01:00:04,VALID,915.257,VALID,0,VALID,96.6344,VALID,0,VALID,19.5078,VALID,342,VALID,0.376172,
2010-10-01, 01:01:04,VALID,915.23,VALID,0,VALID,96.5277,VALID,0,VALID,19.4478,VALID,342,VALID,0.260156,
2010-10-01, 01:02:04,VALID,915.238,VALID,0,VALID,96.5429,VALID,0,VALID,19.4493,VALID,342,VALID,0.329688,
2010-10-01, 01:03:04,VALID,915.23,VALID,0,VALID,96.5429,VALID,0,VALID,19.4103,VALID,342,VALID,0.375781,
2010-10-01, 01:04:04,VALID,915.225,VALID,0,VALID,96.5582,VALID,0,VALID,19.4088,VALID,342,VALID,0.258984,
2010-10-01, 01:05:04,VALID,915.214,VALID,0,VALID,96.6268,VALID,0,VALID,19.4298,VALID,342,VALID,0.00117188,
2010-10-01, 01:06:04,VALID,915.221,VALID,0,VALID,96.6344,VALID,0,VALID,19.4298,VALID,342,VALID,0,
2010-10-01, 01:07:04,VALID,915.185,VALID,0,VALID,96.6725,VALID,0,VALID,19.4298,VALID,342,VALID,0,
2010-10-01, 01:08:04,VALID,915.174,VALID,0,VALID,96.6573,VALID,0,VALID,19.3893,VALID,342,VALID,0,
2010-10-01, 01:09:04,VALID,915.174,VALID,0,VALID,96.6649,VALID,0,VALID,19.4088,VALID,342,VALID,0,
2010-10-01, 01:10:04,VALID,915.155,VALID,0,VALID,96.703,VALID,0,VALID,19.4298,VALID,342,VALID,0,
2010-10-01, 01:11:04,VALID,915.133,VALID,0,VALID,96.7183,VALID,0,VALID,19.4283,VALID,342,VALID,0,
2010-10-01, 01:12:04,VALID,915.087,VALID,0,VALID,96.7183,VALID,0,VALID,19.4493,VALID,342,VALID,0,
2010-10-01, 01:13:04,VALID,915.141,VALID,0,VALID,96.7259,VALID,0,VALID,19.4478,INVALID,360,VALID,0,
2010-10-01, 01:14:04,VALID,915.139,VALID,0,VALID,96.7411,VALID,0,VALID,19.4688,VALID,342,VALID,0,
2010-10-01, 01:15:04,VALID,915.134,VALID,0,VALID,96.7411,VALID,0,VALID,19.4673,INVALID,360,VALID,0,
2010-10-01, 01:16:04,VALID,915.144,VALID,0,VALID,96.7411,VALID,0,VALID,19.4883,VALID,342,VALID,0,
2010-10-01, 01:17:04,VALID,915.123,VALID,0,VALID,96.7107,VALID,0,VALID,19.4673,VALID,342,VALID,0,
2010-10-01, 01:18:04,VALID,915.134,VALID,0,VALID,96.6954,VALID,0,VALID,19.4478,VALID,342,VALID,0.275781,
2010-10-01, 01:19:04,VALID,915.11,VALID,0,VALID,96.6344,VALID,0,VALID,19.4688,VALID,342,VALID,0.449609,
2010-10-01, 01:20:04,VALID,915.093,VALID,0,VALID,96.6573,VALID,0,VALID,19.4493,VALID,342,VALID,0.501172,
2010-10-01, 01:21:04,VALID,915.067,VALID,0,VALID,96.6878,VALID,0,VALID,19.4673,VALID,342,VALID,0.417188,
2010-10-01, 01:22:04,VALID,915.089,VALID,0,VALID,96.6725,VALID,0,VALID,19.4883,VALID,342,VALID,0.417578,
2010-10-01, 01:23:04,VALID,915.034,VALID,0,VALID,96.6039,VALID,0,VALID,19.4883,VALID,342,VALID,0.428125,
2010-10-01, 01:24:04,VALID,915.026,VALID,0,VALID,96.6344,VALID,0,VALID,19.4673,VALID,342,VALID,0.146484,
2010-10-01, 01:25:04,VALID,915.014,VALID,0,VALID,96.5963,VALID,0,VALID,19.4883,VALID,342,VALID,0,
2010-10-01, 01:26:04,VALID,914.988,VALID,0,VALID,96.6115,VALID,0,VALID,19.5078,VALID,342,VALID,0.00117188,
2010-10-01, 01:27:04,VALID,914.987,VALID,0,VALID,96.6268,VALID,0,VALID,19.5063,VALID,342,VALID,0.441406,
2010-10-01, 01:28:04,VALID,915.013,VALID,0,VALID,96.5429,VALID,0,VALID,19.5078,VALID,342,VALID,0.447266,
2010-10-01, 01:29:04,VALID,914.967,VALID,0,VALID,96.4743,VALID,0,VALID,19.4673,VALID,342,VALID,0.376172,
2010-10-01, 01:30:04,VALID,914.949,VALID,0,VALID,96.4515,VALID,0,VALID,19.4868,VALID,342,VALID,0.330859,
2010-10-01, 01:31:04,VALID,914.965,VALID,0,VALID,96.4286,VALID,0,VALID,19.4673,VALID,342,VALID,0.401563,
2010-10-01, 01:32:04,VALID,914.952,VALID,0,VALID,96.3829,VALID,0,VALID,19.4673,VALID,342,VALID,0.502734,
2010-10-01, 01:33:04,VALID,914.938,VALID,0,VALID,96.3676,VALID,0,VALID,19.4883,VALID,342,VALID,0.593359,
2010-10-01, 01:34:04,VALID,914.89,VALID,0,VALID,96.3829,VALID,0,VALID,19.4883,VALID,342,VALID,0.719531,
2010-10-01, 01:35:04,VALID,914.894,VALID,0,VALID,96.3524,VALID,0,VALID,19.4673,VALID,342,VALID,0.748047,
2010-10-01, 01:36:04,VALID,914.851,VALID,0,VALID,96.3676,VALID,0,VALID,19.4883,VALID,342,VALID,0.726953,
2010-10-01, 01:37:04,VALID,914.823,VALID,0,VALID,96.3676,VALID,0,VALID,19.4478,VALID,342,VALID,0.619922,
2010-10-01, 01:38:04,VALID,914.806,VALID,0,VALID,96.4057,VALID,0,VALID,19.4688,VALID,342,VALID,0.528516,
2010-10-01, 01:39:04,VALID,914.77,VALID,0,VALID,96.4057,VALID,0,VALID,19.4673,VALID,342,VALID,0.610547,
2010-10-01, 01:40:04,VALID,914.761,VALID,0,VALID,96.3905,VALID,0,VALID,19.4673,VALID,342,VALID,0.537109,
2010-10-01, 01:41:04,VALID,914.755,VALID,0,VALID,96.3981,VALID,0,VALID,19.4688,VALID,343,VALID,0.584375,
2010-10-01, 01:42:04,VALID,914.715,VALID,0,VALID,96.4133,VALID,0,VALID,19.4673,VALID,343,VALID,0.591797,
2010-10-01, 01:43:04,VALID,914.743,VALID,0,VALID,96.4133,VALID,0,VALID,19.4673,VALID,343,VALID,0.540234,
2010-10-01, 01:44:04,VALID,914.696,VALID,0,VALID,96.4591,VALID,0,VALID,19.4883,VALID,343,VALID,0.529688,
2010-10-01, 01:45:04,VALID,914.698,VALID,0,VALID,96.4819,VALID,0,VALID,19.4883,VALID,343,VALID,0.279687,
2010-10-01, 01:46:04,VALID,914.688,VALID,0,VALID,96.4591,VALID,0,VALID,19.4868,VALID,343,VALID,0.7125,
2010-10-01, 01:47:04,VALID,914.698,VALID,0,VALID,96.4591,VALID,0,VALID,19.4883,VALID,343,VALID,0.571094,
2010-10-01, 01:48:04,VALID,914.626,VALID,0,VALID,96.4896,VALID,0,VALID,19.4868,VALID,343,VALID,0.750781,
2010-10-01, 01:49:04,VALID,914.625,VALID,0,VALID,96.5429,VALID,0,VALID,19.5063,VALID,343,VALID,1.00742,
2010-10-01, 01:50:04,VALID,914.62,VALID,0,VALID,96.5506,VALID,0,VALID,19.5063,VALID,343,VALID,0.991797,
2010-10-01, 01:51:04,VALID,914.616,VALID,0,VALID,96.5201,VALID,0,VALID,19.5063,VALID,4,VALID,1.27773,
2010-10-01, 01:52:04,VALID,914.588,VALID,0,VALID,96.5277,VALID,0,VALID,19.4868,VALID,4,VALID,1.20039,
2010-10-01, 01:53:04,VALID,914.577,VALID,0,VALID,96.5429,VALID,0,VALID,19.4883,VALID,4,VALID,0.872266,
2010-10-01, 01:54:04,VALID,914.582,VALID,0,VALID,96.5887,VALID,0,VALID,19.4883,VALID,4,VALID,0.701172,
2010-10-01, 01:55:04,VALID,914.56,VALID,0,VALID,96.5887,VALID,0,VALID,19.4673,VALID,4,VALID,0.570313,
2010-10-01, 01:56:04,VALID,914.546,VALID,0,VALID,96.6268,VALID,0,VALID,19.4883,VALID,4,VALID,0.311719,
2010-10-01, 01:57:04,VALID,914.527,VALID,0,VALID,96.6725,VALID,0,VALID,19.5078,VALID,4,VALID,0.611328,
2010-10-01, 01:58:04,VALID,914.499,VALID,0,VALID,96.6649,VALID,0,VALID,19.5063,VALID,4,VALID,0.648828,
2010-10-01, 01:59:04,VALID,914.498,VALID,0,VALID,96.642,VALID,0,VALID,19.4883,VALID,4,VALID,0.783203,
2010-10-01, 02:00:04,VALID,914.477,VALID,0,VALID,96.6497,VALID,0,VALID,19.4883,VALID,4,VALID,0.778125,
2010-10-01, 02:01:04,VALID,914.457,VALID,0,VALID,96.6802,VALID,0,VALID,19.4688,VALID,4,VALID,0.852344,
2010-10-01, 02:02:04,VALID,914.426,VALID,0,VALID,96.6954,VALID,0,VALID,19.4673,VALID,4,VALID,0.886328,
2010-10-01, 02:03:04,VALID,914.44,VALID,0,VALID,96.7183,VALID,0,VALID,19.4688,VALID,4,VALID,0.550391,
2010-10-01, 02:04:04,VALID,914.432,VALID,0,VALID,96.764,VALID,0,VALID,19.4688,VALID,4,VALID,0.360938,
2010-10-01, 02:05:04,VALID,914.446,VALID,0,VALID,96.7716,VALID,0,VALID,19.4883,VALID,4,VALID,0.537891,
2010-10-01, 02:06:04,VALID,914.411,VALID,0,VALID,96.8021,VALID,0,VALID,19.4883,VALID,4,VALID,0.438281,
2010-10-01, 02:07:04,VALID,914.413,VALID,0,VALID,96.8555,VALID,0,VALID,19.4868,VALID,4,VALID,0.224609,
2010-10-01, 02:08:04,VALID,914.363,VALID,0,VALID,96.8631,VALID,0,VALID,19.5273,VALID,4,VALID,0.479297,
2010-10-01, 02:09:04,VALID,914.347,VALID,0,VALID,96.8631,VALID,0,VALID,19.5258,VALID,4,VALID,0.566016,
2010-10-01, 02:10:04,VALID,914.32,VALID,0,VALID,96.8555,VALID,0,VALID,19.5258,VALID,4,VALID,0.548047,
2010-10-01, 02:11:04,VALID,914.322,VALID,0,VALID,96.8707,VALID,0,VALID,19.5663,VALID,4,VALID,0.421484,
2010-10-01, 02:12:04,VALID,914.288,VALID,0,VALID,96.8174,VALID,0,VALID,19.5258,VALID,4,VALID,0.366797,
2010-10-01, 02:13:04,VALID,914.304,VALID,0,VALID,96.8631,VALID,0,VALID,19.5258,VALID,4,VALID,0.298047,
2010-10-01, 02:14:04,VALID,914.288,VALID,0,VALID,96.8174,VALID,0,VALID,19.5063,VALID,4,VALID,0.199609,
2010-10-01, 02:15:04,VALID,914.277,VALID,0,VALID,96.886,VALID,0,VALID,19.5273,VALID,4,VALID,0.0675781,
2010-10-01, 02:16:04,VALID,914.265,VALID,0,VALID,96.9089,VALID,0,VALID,19.5453,VALID,4,VALID,0.128906,
2010-10-01, 02:17:04,VALID,914.279,VALID,0,VALID,96.8631,VALID,0,VALID,19.5468,VALID,4,VALID,0.146094,
2010-10-01, 02:18:04,VALID,914.253,VALID,0,VALID,96.8784,VALID,0,VALID,19.5258,VALID,4,VALID,0,
2010-10-01, 02:19:04,VALID,914.256,VALID,0,VALID,96.8784,VALID,0,VALID,19.5258,VALID,4,VALID,0,
2010-10-01, 02:20:04,VALID,914.235,VALID,0,VALID,96.9165,VALID,0,VALID,19.5468,VALID,4,VALID,0.0539063,
2010-10-01, 02:21:04,VALID,914.224,VALID,0,VALID,96.8707,VALID,0,VALID,19.5063,VALID,4,VALID,0.109766,
2010-10-01, 02:22:04,VALID,914.239,VALID,0,VALID,96.8707,VALID,0,VALID,19.4868,VALID,4,VALID,0,
2010-10-01, 02:23:04,VALID,914.244,VALID,0,VALID,96.8936,VALID,0,VALID,19.5063,VALID,4,VALID,0,
2010-10-01, 02:24:04,VALID,914.221,VALID,0,VALID,96.9089,VALID,0,VALID,19.5063,VALID,4,VALID,0.160938,
2010-10-01, 02:25:04,VALID,914.228,VALID,0,VALID,96.8936,VALID,0,VALID,19.5063,VALID,4,VALID,0.132031,
2010-10-01, 02:26:04,VALID,914.238,VALID,0,VALID,96.886,VALID,0,VALID,19.4673,VALID,4,VALID,0,
2010-10-01, 02:27:04,VALID,914.23,VALID,0,VALID,96.9165,VALID,0,VALID,19.5078,VALID,4,VALID,0,
2010-10-01, 02:28:04,VALID,914.223,VALID,0,VALID,96.9165,VALID,0,VALID,19.5078,VALID,4,VALID,0.207031,
2010-10-01, 02:29:04,VALID,914.229,VALID,0,VALID,96.9698,VALID,0,VALID,19.5468,VALID,4,VALID,0.316797,
2010-10-01, 02:30:04,VALID,914.203,VALID,0,VALID,96.9165,VALID,0,VALID,19.5273,VALID,4,VALID,0,
2010-10-01, 02:31:04,VALID,914.176,VALID,0,VALID,96.9394,VALID,0,VALID,19.5063,VALID,4,VALID,0.478516,
2010-10-01, 02:32:04,VALID,914.169,VALID,0,VALID,96.8936,VALID,0,VALID,19.4868,VALID,4,VALID,0.417578,
2010-10-01, 02:33:04,VALID,914.179,VALID,0,VALID,96.9165,VALID,0,VALID,19.4883,VALID,4,VALID,0.646875,
2010-10-01, 02:34:04,VALID,914.19,VALID,0,VALID,96.9012,VALID,0,VALID,19.4478,VALID,4,VALID,0.607422,
2010-10-01, 02:35:04,VALID,914.19,VALID,0,VALID,96.9241,VALID,0,VALID,19.4478,VALID,4,VALID,0.587891,
2010-10-01, 02:36:04,VALID,914.179,VALID,0,VALID,96.9317,VALID,0,VALID,19.4688,VALID,4,VALID,0.6625,
2010-10-01, 02:37:04,VALID,914.163,VALID,0,VALID,96.9546,VALID,0,VALID,19.4673,VALID,4,VALID,0.421875,
2010-10-01, 02:38:04,VALID,914.16,VALID,0,VALID,96.9851,VALID,0,VALID,19.4868,VALID,4,VALID,0.364453,
2010-10-01, 02:39:04,VALID,914.147,VALID,0,VALID,96.9927,VALID,0,VALID,19.5273,VALID,4,VALID,0.4125,
2010-10-01, 02:40:04,VALID,914.115,VALID,0,VALID,96.9775,VALID,0,VALID,19.4673,VALID,4,VALID,0.478906,
2010-10-01, 02:41:04,VALID,914.117,VALID,0,VALID,96.9622,VALID,0,VALID,19.4868,VALID,4,VALID,0.482031,
2010-10-01, 02:42:04,VALID,914.142,VALID,0,VALID,96.9851,VALID,0,VALID,19.4673,VALID,4,VALID,0.439453,
2010-10-01, 02:43:04,VALID,914.105,VALID,0,VALID,96.9927,VALID,0,VALID,19.4868,VALID,4,VALID,0.259375,
2010-10-01, 02:44:04,VALID,914.122,VALID,0,VALID,96.9622,VALID,0,VALID,19.4868,VALID,4,VALID,0.137109,
2010-10-01, 02:45:04,VALID,914.07,VALID,0,VALID,96.9546,VALID,0,VALID,19.4673,VALID,4,VALID,0.353906,
2010-10-01, 02:46:04,VALID,914.071,VALID,0,VALID,96.9698,VALID,0,VALID,19.4478,VALID,4,VALID,0.238672,
2010-10-01, 02:47:04,VALID,914.069,VALID,0,VALID,96.9622,VALID,0,VALID,19.4478,VALID,4,VALID,0.312109,
2010-10-01, 02:48:04,VALID,914.051,VALID,0,VALID,96.9851,VALID,0,VALID,19.4883,VALID,4,VALID,0.187891,
2010-10-01, 02:49:04,VALID,914.049,VALID,0,VALID,96.9851,VALID,0,VALID,19.4883,VALID,4,VALID,0.255859,
2010-10-01, 02:50:04,VALID,914.076,VALID,0,VALID,97.0003,VALID,0,VALID,19.4478,VALID,4,VALID,0.371875,
2010-10-01, 02:51:04,VALID,914.057,VALID,0,VALID,97.0156,VALID,0,VALID,19.4478,VALID,4,VALID,0.516406,
2010-10-01, 02:52:04,VALID,914.087,VALID,0,VALID,97.0232,VALID,0,VALID,19.4478,VALID,4,VALID,0.583203,
2010-10-01, 02:53:04,VALID,914.068,VALID,0,VALID,97.0003,VALID,0,VALID,19.4883,VALID,4,VALID,0.446875,
2010-10-01, 02:54:04,VALID,914.034,VALID,0,VALID,97.0232,VALID,0,VALID,19.5273,VALID,4,VALID,0.592578,
2010-10-01, 02:55:04,VALID,913.995,VALID,0,VALID,97.0308,VALID,0,VALID,19.4868,VALID,4,VALID,0.275781,
2010-10-01, 02:56:04,VALID,914.023,VALID,0,VALID,97.0232,VALID,0,VALID,19.5063,VALID,4,VALID,0.655469,
2010-10-01, 02:57:04,VALID,913.981,VALID,0,VALID,97.0232,VALID,0,VALID,19.5078,VALID,4,VALID,0.767578,
2010-10-01, 02:58:04,VALID,913.993,VALID,0,VALID,97.0232,VALID,0,VALID,19.4868,VALID,4,VALID,0.5375,
2010-10-01, 02:59:04,VALID,913.984,VALID,0,VALID,97.008,VALID,0,VALID,19.4868,VALID,4,VALID,0.696484,
2010-10-01, 03:00:04,VALID,913.955,VALID,0,VALID,97.0232,VALID,0,VALID,19.5078,VALID,4,VALID,0.553906,
2010-10-01, 03:01:04,VALID,913.958,VALID,0,VALID,97.0156,VALID,0.107441,VALID,19.4673,VALID,4,VALID,1.03945,
2010-10-01, 03:02:04,VALID,913.929,VALID,0,VALID,97.0232,VALID,0,VALID,19.4673,VALID,4,VALID,0.865625,
2010-10-01, 03:03:04,VALID,913.935,VALID,0,VALID,97.008,VALID,0,VALID,19.4478,VALID,4,VALID,0.921875,
2010-10-01, 03:04:04,VALID,913.905,VALID,0,VALID,97.008,VALID,0,VALID,19.4493,VALID,4,VALID,0.796875,
2010-10-01, 03:05:04,VALID,913.927,VALID,0,VALID,97.0156,VALID,0,VALID,19.4283,VALID,4,VALID,0.786719,
2010-10-01, 03:06:05,VALID,913.928,VALID,0,VALID,97.0308,VALID,0,VALID,19.4088,VALID,4,VALID,0.59375,
2010-10-01, 03:07:05,VALID,913.887,VALID,0,VALID,97.0385,VALID,0,VALID,19.4103,VALID,4,VALID,0.718359,
2010-10-01, 03:08:05,VALID,913.884,VALID,0,VALID,97.0308,VALID,0,VALID,19.3698,VALID,4,VALID,1.06797,
2010-10-01, 03:09:05,VALID,913.889,VALID,0,VALID,97.0308,VALID,0,VALID,19.3698,VALID,4,VALID,0.760547,
2010-10-01, 03:10:05,VALID,913.886,VALID,0,VALID,97.0308,VALID,0,VALID,19.3698,VALID,4,VALID,0.974609,
2010-10-01, 03:11:05,VALID,913.846,VALID,0,VALID,97.0385,VALID,0,VALID,19.3908,VALID,4,VALID,1.23555,
2010-10-01, 03:12:05,VALID,913.862,VALID,0,VALID,97.0537,VALID,0,VALID,19.3908,VALID,4,VALID,1.33828,
2010-10-01, 03:13:05,VALID,913.842,VALID,0,VALID,97.0766,VALID,0,VALID,19.3713,VALID,4,VALID,0.761328,
2010-10-01, 03:14:05,VALID,913.808,VALID,0,VALID,97.0613,VALID,0,VALID,19.3698,VALID,4,VALID,0.956641,
2010-10-01, 03:15:05,VALID,913.864,VALID,0,VALID,97.0766,VALID,0,VALID,19.3713,VALID,4,VALID,1.02461,
2010-10-01, 03:16:05,VALID,913.822,VALID,0,VALID,97.0918,VALID,0,VALID,19.3503,VALID,4,VALID,0.973047,
2010-10-01, 03:17:05,VALID,913.817,VALID,0,VALID,97.0842,VALID,0,VALID,19.3308,VALID,4,VALID,0.603125,
2010-10-01, 03:18:05,VALID,913.836,VALID,0,VALID,97.0918,VALID,0,VALID,19.3308,VALID,4,VALID,0.362109,
2010-10-01, 03:19:05,VALID,913.847,VALID,0,VALID,97.0766,VALID,0,VALID,19.3308,VALID,4,VALID,1.00391,
2010-10-01, 03:20:05,VALID,913.846,VALID,0,VALID,97.1071,VALID,0,VALID,19.3113,VALID,4,VALID,0.655078,
2010-10-01, 03:21:05,VALID,913.839,VALID,0,VALID,97.0766,VALID,0,VALID,19.3323,VALID,4,VALID,0.810156,
2010-10-01, 03:22:05,VALID,913.807,VALID,0,VALID,97.0994,VALID,0,VALID,19.3323,VALID,4,VALID,0.369141,
2010-10-01, 03:23:05,VALID,913.806,VALID,0,VALID,97.1071,VALID,0,VALID,19.3113,VALID,4,VALID,0.604688,
2010-10-01, 03:24:05,VALID,913.814,VALID,0,VALID,97.1223,VALID,0,VALID,19.2918,VALID,4,VALID,0.761719,
2010-10-01, 03:25:05,VALID,913.825,VALID,0,VALID,97.1223,VALID,0,VALID,19.2723,VALID,4,VALID,0.622266,
2010-10-01, 03:26:05,VALID,913.837,VALID,0,VALID,97.1147,VALID,0,VALID,19.2738,VALID,4,VALID,0.714063,
2010-10-01, 03:27:05,VALID,913.849,VALID,0,VALID,97.1147,VALID,0,VALID,19.2334,VALID,4,VALID,0.673047,
2010-10-01, 03:28:05,VALID,913.832,VALID,0,VALID,97.1147,VALID,0,VALID,19.2139,VALID,4,VALID,0.764844,
2010-10-01, 03:29:05,VALID,913.867,VALID,0,VALID,97.1071,VALID,0,VALID,19.2153,VALID,4,VALID,0.782422,
2010-10-01, 03:30:05,VALID,913.863,VALID,0,VALID,97.1299,VALID,0,VALID,19.1944,VALID,4,VALID,0.395703,
2010-10-01, 03:31:05,VALID,913.872,VALID,0,VALID,97.1147,VALID,0,VALID,19.1944,VALID,4,VALID,0.316797,
2010-10-01, 03:32:05,VALID,913.865,VALID,0,VALID,97.1223,VALID,0,VALID,19.1749,VALID,4,VALID,0.0902344,
2010-10-01, 03:33:05,VALID,913.879,VALID,0,VALID,97.1299,VALID,0,VALID,19.1958,VALID,4,VALID,0.200391,
2010-10-01, 03:34:05,VALID,913.865,VALID,0,VALID,97.1376,VALID,0,VALID,19.1958,VALID,4,VALID,0.189844,
2010-10-01, 03:35:05,VALID,913.894,VALID,0,VALID,97.1604,VALID,0,VALID,19.1958,VALID,4,VALID,0,
2010-10-01, 03:36:05,VALID,913.888,VALID,0,VALID,97.1681,VALID,0,VALID,19.1749,VALID,4,VALID,0,
2010-10-01, 03:37:05,VALID,913.874,VALID,0,VALID,97.1604,VALID,0,VALID,19.1958,VALID,4,VALID,0.301953,
2010-10-01, 03:38:05,VALID,913.874,VALID,0,VALID,97.1757,VALID,0,VALID,19.1958,VALID,4,VALID,0.225391,
2010-10-01, 03:39:05,VALID,913.873,VALID,0,VALID,97.1833,VALID,0,VALID,19.1958,VALID,4,VALID,0.155859,
2010-10-01, 03:40:05,VALID,913.86,VALID,0,VALID,97.1757,VALID,0,VALID,19.1958,VALID,4,VALID,0,
2010-10-01, 03:41:05,VALID,913.883,VALID,0,VALID,97.1604,VALID,0,VALID,19.1568,VALID,4,VALID,0,
2010-10-01, 03:42:05,VALID,913.853,VALID,0,VALID,97.1833,VALID,0,VALID,19.1554,VALID,4,VALID,0.533594,
2010-10-01, 03:43:05,VALID,913.841,VALID,0,VALID,97.1909,VALID,0,VALID,19.1944,VALID,4,VALID,0.696875,
2010-10-01, 03:44:05,VALID,913.885,VALID,0,VALID,97.2062,VALID,0,VALID,19.2348,VALID,4,VALID,0.689453,
2010-10-01, 03:45:05,VALID,913.859,VALID,0,VALID,97.1986,VALID,0,VALID,19.2348,VALID,4,VALID,0.481641,
2010-10-01, 03:46:05,VALID,913.883,VALID,0,VALID,97.1681,VALID,0,VALID,19.1763,VALID,4,VALID,0.373047,
2010-10-01, 03:47:05,VALID,913.861,VALID,0,VALID,97.1757,VALID,0,VALID,19.1359,VALID,4,VALID,0.552344,
2010-10-01, 03:48:05,VALID,913.877,VALID,0,VALID,97.1909,VALID,0,VALID,19.1958,VALID,4,VALID,0.630859,
2010-10-01, 03:49:05,VALID,913.883,VALID,0,VALID,97.2062,VALID,0,VALID,19.1958,VALID,4,VALID,0.391797,